Regional Weather Roundup
Issued by NWS

Home | Current Version | Previous Version | Text Only | Print | Product List | Glossary Off
Versions: 1 2 3 4 5 6 7 8 9 10 11 12 13 14 15 16 17 18 19 20 21 22 23 24 25 26 27 28 29 30 31 32 33 34 35 36 37 38 39 40 41 42 43 44 45 46 47 48 49 50

000
ASUS43 KLSX 101307
RWRMO

WEATHER SUMMARY FOR MISSOURI
NATIONAL WEATHER SERVICE SPRINGFIELD MO
700 AM CST SUN DEC 10 2017

NOTE: "FAIR" INDICATES FEW OR NO CLOUDS BELOW 12,000 FEET WITH NO
       SIGNIFICANT WEATHER AND/OR OBSTRUCTIONS TO VISIBILITY.
       CURRENT SKY AND/OR WEATHER CONDITIONS ARE NOT AVAILABLE FOR
       CHILLICOTHE AND FARMINGTON.

MOZ001>031-035>038-043-044-053-054-101400-
...NORTHERN AND WESTERN MISSOURI...

CITY           SKY/WX    TMP DP  RH WIND       PRES   REMARKS
KANSAS CTY INT CLEAR     28  22  78 SW14      30.06R WCI  17
KANSAS C DTWN  CLEAR     33  22  63 W8        30.08R WCI  26
LEE`S SUMMIT   CLEAR     34  22  61 W12       30.07S WCI  25
ST JOSEPH      CLEAR     32  22  66 SW3       30.07R
CHILLICOTHE      N/A     29  20  69 VRB5      30.03S WCI  24
KIRKSVILLE     CLEAR     27  21  78 W7        29.98F WCI  19

$$
MOZ066>068-077>081-088>096-101>105-101400-
...SOUTHWEST MISSOURI...

CITY           SKY/WX    TMP DP  RH WIND       PRES   REMARKS
SPRINGFIELD    CLOUDY    27  19  72 S9        30.13F WCI  18
JOPLIN         CLEAR     38  24  57 SW14      30.16F WCI  30
BRANSON        CLEAR     34  18  51 SW9       30.18F WCI  26

$$
MOZ032>034-039>042-045>050-055>058-069>072-101400-
...CENTRAL MISSOURI...

CITY           SKY/WX    TMP DP  RH WIND       PRES   REMARKS
COLUMBIA       CLEAR     27  20  75 SW10      30.05F WCI  17
JEFFERSON CITY CLEAR     29  18  63 S3        30.09S
ROLLA          CLEAR     27  18  69 S16       30.09F WCI  15
SEDALIA        CLEAR     33  23  66 SW16G25   30.07R WCI  23
WHITEMAN AFB   CLEAR     32  20  62 SW13      30.02S WCI  22
WARRENSBURG    CLEAR     32  23  69 SW9       30.08S WCI  24
OSAGE BEACH    CLEAR     31  22  69 SW9       30.10F WCI  23

$$
MOZ051-052-059>065-101400-
...EAST CENTRAL MISSOURI...

CITY           SKY/WX    TMP DP  RH WIND       PRES   REMARKS
ST LOUIS INTL  PTCLDY    26  17  68 SW9       30.10F WCI  17
SPIRIT OF STL  CLEAR     27  17  66 SW6       30.10F WCI  20
ST CHARLES     CLEAR     16  12  84 E5        30.10F WCI   9

$$
MOZ072>076-082>087-097>100-106>115-101400-
...SOUTH CENTRAL AND SOUTHEAST MISSOURI...

CITY           SKY/WX    TMP DP  RH WIND       PRES   REMARKS
CAPE GIRARDEAU CLEAR     23  17  78 S3        30.22F
FARMINGTON     CLEAR     22  17  81 S8        30.16R WCI  12
POPLAR BLUFF   CLOUDY    24  20  84 S3        30.24R
WEST PLAINS    CLEAR     25  19  78 SW8       30.18S WCI  16

$$



USA.gov is the U.S. government's official web portal to all federal, state and local government web resources and services.